User: anonymous   Login
Location: Skalnate Pleso
(49.1889°N, 20.2450°E)
Time: 02:43:24
(UTC+01:00)
Language:

Cosmos 1408 Rocket - Orbit

View from above orbital plane
View from above orbital plane
View from above satellite
View from above satellite

Ground track
Ground track

The orbit data is extracted from the following two-line orbital elements,

1 13553U 82092B   20021.19713840  .00000058  00000-0  39484-5 0  9992
2 13553  82.5677  70.7674 0022231 148.3771 271.1444 14.84220576 17657
Epoch (UTC): 21 January 2020 04:43:52
Eccentricity: 0.0022231
inclination: 82.5677°
perigee height: 600 km
apogee height: 631 km
right ascension of ascending node: 70.7674°
argument of perigee: 148.3771°
revolutions per day: 14.84220576
mean anomaly at epoch: 271.1444°
orbit number at epoch: 1765

The dashed part of the orbit path shows where the satellite is in the earth's shadow,  

DLR